Winona, MN

1:40 PM CDT on September 18, 2019 (GMT -0500)
Winona Municipal-Conrad

Weather History for KONA - August, 2019

Change the Weather History Date:

Friday, August 23, 2019

  Actual Average Record
Temperature  
Mean Temperature 68 °F -  
Max Temperature 77 °F 79 °F 91 °F (1998)
Min Temperature 59 °F 60 °F 50 °F (1996)
Cooling Degree Days 3    
Growing Degree Days 18 (Base 50)    
Moisture  
Dew Point 56 °F    
Average Humidity 74    
Maximum Humidity 94    
Minimum Humidity 47    
Precipitation  
Precipitation 0.00 in - - ()
Sea Level Pressure  
Sea Level Pressure 30.20 in    
Wind  
Wind Speed 3 mph (ESE)    
Max Wind Speed 10 mph    
Max Gust Speed -    
Visibility 10 miles    
Events      
Averages and records for this station are not official NWS values.
T = Trace of Precipitation, MM = Missing Value Source: NWS Daily Summary

Daily Weather History Graph

Daily Weather History Graph

Search for Another Location

Airport or City:

Astronomy

Aug. 23, 2019 Rise Set
Actual Time 6:19 AM CDT 7:58 PM CDT
Civil Twilight 5:48 AM CDT 8:29 PM CDT
Nautical Twilight 5:11 AM CDT 9:06 PM CDT
Astronomical Twilight 4:31 AM CDT 9:45 PM CDT
Moon No Moon Rise 2:13 PM CDT (8/23)
Length of Visible Light 14h 40m
Length of Day
13h 39m
Waning Gibbous, 49% of the Moon is Illuminated
Aug 23
Waning Gibbous
Aug 30
New
Sep 5
First Quarter
Sep 13
Full
Sep 21
Last Quarter

Hourly Weather History & Observations

Time (CDT) Temp. Dew Point Humidity Pressure Visibility Wind Dir Wind Speed Gust Speed Precip Events Conditions
12:16 AM 60.8 °F 55.4 °F 82% 30.13 in 10.0 mi Calm Calm - N/A   Scattered Clouds
12:39 AM 60.8 °F 55.4 °F 82% 30.13 in 10.0 mi Calm Calm - N/A   Scattered Clouds
12:57 AM 59.0 °F 55.4 °F 88% 30.14 in 10.0 mi Calm Calm - N/A   Mostly Cloudy
1:16 AM 59.0 °F 57.2 °F 94% 30.14 in 10.0 mi Calm Calm - N/A   Mostly Cloudy
1:36 AM 59.0 °F 57.2 °F 94% 30.14 in 10.0 mi Calm Calm - N/A   Mostly Cloudy
1:59 AM 59.0 °F 55.4 °F 88% 30.15 in 10.0 mi Calm Calm - N/A   Mostly Cloudy
2:18 AM 59.0 °F 55.4 °F 88% 30.15 in 10.0 mi Calm Calm - N/A   Mostly Cloudy
2:36 AM 59.0 °F 55.4 °F 88% 30.15 in 10.0 mi Calm Calm - N/A   Mostly Cloudy
2:56 AM 59.0 °F 57.2 °F 94% 30.15 in 10.0 mi Calm Calm - N/A   Scattered Clouds
3:16 AM 59.0 °F 57.2 °F 94% 30.15 in 10.0 mi Calm Calm - N/A   Scattered Clouds
3:37 AM 59.0 °F 55.4 °F 88% 30.15 in 10.0 mi SE 4.6 mph - N/A   Clear
3:55 AM 59.0 °F 55.4 °F 88% 30.16 in 10.0 mi SE 4.6 mph - N/A   Clear
4:16 AM 59.0 °F 55.4 °F 88% 30.16 in 10.0 mi Calm Calm - N/A   Clear
4:40 AM 59.0 °F 55.4 °F 88% 30.16 in 10.0 mi Calm Calm - N/A   Scattered Clouds
4:57 AM 59.0 °F 57.2 °F 94% 30.17 in 10.0 mi SE 4.6 mph - N/A   Mostly Cloudy
5:16 AM 59.0 °F 55.4 °F 88% 30.17 in 10.0 mi SE 3.5 mph - N/A   Overcast
5:36 AM 59.0 °F 55.4 °F 88% 30.17 in 10.0 mi Calm Calm - N/A   Scattered Clouds
5:56 AM 59.0 °F 55.4 °F 88% 30.17 in 10.0 mi SSE 3.5 mph - N/A   Clear
6:18 AM 59.0 °F 55.4 °F 88% 30.18 in 10.0 mi Calm Calm - N/A   Clear
6:37 AM 59.0 °F 55.4 °F 88% 30.19 in 10.0 mi Calm Calm - N/A   Mostly Cloudy
6:56 AM 59.0 °F 55.4 °F 88% 30.20 in 10.0 mi Calm Calm - N/A   Mostly Cloudy
7:16 AM 59.0 °F 57.2 °F 94% 30.21 in 10.0 mi Calm Calm - N/A   Clear
7:40 AM 59.0 °F 55.4 °F 88% 30.22 in 10.0 mi Calm Calm - N/A   Scattered Clouds
7:58 AM 59.0 °F 55.4 °F 88% 30.22 in 10.0 mi SE 3.5 mph - N/A   Scattered Clouds
8:16 AM 60.8 °F 57.2 °F 88% 30.23 in 10.0 mi SE 4.6 mph - N/A   Scattered Clouds
8:36 AM 60.8 °F 57.2 °F 88% 30.23 in 10.0 mi SE 8.1 mph - N/A   Mostly Cloudy
8:56 AM 60.8 °F 57.2 °F 88% 30.24 in 10.0 mi SE 5.8 mph - N/A   Overcast
9:55 AM 64.4 °F 59.0 °F 83% 30.24 in 10.0 mi SE 8.1 mph - N/A   Overcast
10:16 AM 66.2 °F 59.0 °F 78% 30.24 in 10.0 mi ESE 8.1 mph - N/A   Overcast
10:35 AM 69.8 °F 59.0 °F 68% 30.24 in 10.0 mi ESE 6.9 mph - N/A   Overcast
10:57 AM 69.8 °F 59.0 °F 68% 30.24 in 10.0 mi SE 8.1 mph - N/A   Overcast
11:16 AM 69.8 °F 57.2 °F 64% 30.24 in 10.0 mi East 8.1 mph - N/A   Mostly Cloudy
11:36 AM 69.8 °F 57.2 °F 64% 30.24 in 7.0 mi ESE 9.2 mph - N/A   Mostly Cloudy
11:55 AM 69.8 °F 55.4 °F 60% 30.24 in 10.0 mi ESE 9.2 mph - N/A   Mostly Cloudy
12:18 PM 73.4 °F 59.0 °F 61% 30.23 in 10.0 mi ESE 8.1 mph - N/A   Scattered Clouds
12:36 PM 73.4 °F 59.0 °F 61% 30.23 in 10.0 mi East 9.2 mph - N/A   Scattered Clouds
12:56 PM 73.4 °F 55.4 °F 53% 30.22 in 10.0 mi ESE 9.2 mph - N/A   Scattered Clouds
1:16 PM 73.4 °F 57.2 °F 57% 30.22 in 10.0 mi East 9.2 mph - N/A   Clear
1:39 PM 73.4 °F 55.4 °F 53% 30.22 in 10.0 mi East 10.4 mph - N/A   Clear
1:57 PM 73.4 °F 55.4 °F 53% 30.22 in 10.0 mi East 8.1 mph - N/A   Scattered Clouds
2:15 PM 73.4 °F 55.4 °F 53% 30.22 in 10.0 mi East 10.4 mph - N/A   Scattered Clouds
2:36 PM 73.4 °F 55.4 °F 53% 30.22 in 10.0 mi East 9.2 mph - N/A   Scattered Clouds
2:56 PM 73.4 °F 53.6 °F 50% 30.21 in 10.0 mi East 9.2 mph - N/A   Clear
3:19 PM 73.4 °F 55.4 °F 53% 30.21 in 10.0 mi ESE 6.9 mph - N/A   Scattered Clouds
3:37 PM 73.4 °F 55.4 °F 53% 30.21 in 10.0 mi SE 9.2 mph - N/A   Mostly Cloudy
3:56 PM 73.4 °F 55.4 °F 53% 30.21 in 10.0 mi East 9.2 mph - N/A   Scattered Clouds
4:16 PM 73.4 °F 55.4 °F 53% 30.20 in 10.0 mi East 8.1 mph - N/A   Scattered Clouds
4:40 PM 77.0 °F 55.4 °F 47% 30.20 in 10.0 mi East 8.1 mph - N/A   Scattered Clouds
4:57 PM 73.4 °F 55.4 °F 53% 30.20 in 10.0 mi ESE 8.1 mph - N/A   Scattered Clouds
5:16 PM 73.4 °F 55.4 °F 53% 30.21 in 10.0 mi ESE 6.9 mph - N/A   Scattered Clouds
5:36 PM 73.4 °F 53.6 °F 50% 30.20 in 10.0 mi ESE 8.1 mph - N/A   Clear
5:56 PM 73.4 °F 55.4 °F 53% 30.20 in 10.0 mi East 8.1 mph - N/A   Clear
6:19 PM 73.4 °F 55.4 °F 53% 30.20 in 10.0 mi ESE 8.1 mph - N/A   Clear
6:37 PM 73.4 °F 55.4 °F 53% 30.20 in 10.0 mi ESE 6.9 mph - N/A   Clear
6:56 PM 73.4 °F 55.4 °F 53% 30.20 in 10.0 mi SE 6.9 mph - N/A   Clear
7:16 PM 73.4 °F 57.2 °F 57% 30.20 in 10.0 mi East 6.9 mph - N/A   Scattered Clouds
7:39 PM 69.8 °F 57.2 °F 64% 30.20 in 10.0 mi East 5.8 mph - N/A   Scattered Clouds
8:16 PM 69.8 °F 59.0 °F 68% 30.21 in 10.0 mi East 4.6 mph - N/A   Clear
8:35 PM 69.8 °F 59.0 °F 68% 30.21 in 10.0 mi SE 3.5 mph - N/A   Clear
8:59 PM 66.2 °F 57.2 °F 73% 30.22 in 10.0 mi Calm Calm - N/A   Clear
9:16 PM 66.2 °F 59.0 °F 78% 30.22 in 10.0 mi Calm Calm - N/A   Clear
9:36 PM 62.6 °F 57.2 °F 82% 30.23 in 10.0 mi Calm Calm - N/A   Clear
9:56 PM 62.6 °F 57.2 °F 82% 30.23 in 10.0 mi Calm Calm - N/A   Clear
10:19 PM 60.8 °F 55.4 °F 82% 30.24 in 10.0 mi Calm Calm - N/A   Clear
10:37 PM 60.8 °F 55.4 °F 82% 30.24 in 10.0 mi Calm Calm - N/A   Clear
10:56 PM 60.8 °F 57.2 °F 88% 30.24 in 10.0 mi Calm Calm - N/A   Clear
11:16 PM 60.8 °F 57.2 °F 88% 30.24 in 10.0 mi Calm Calm - N/A   Clear
11:35 PM 59.0 °F 57.2 °F 94% 30.23 in 10.0 mi Calm Calm - N/A   Clear
11:58 PM 60.8 °F 57.2 °F 88% 30.24 in 10.0 mi Calm Calm - N/A   Clear